This is the latest recevied weather packets stored in our database for station/object K4MUW-4. If no packets are shown the sender has not sent any weather packets the latest 1 day(s).
| Time | Temp. | Humidity | Pressure | Rain* | Wind** | Luminosity | Snow |
|---|---|---|---|---|---|---|---|
| 1777998356 | 22.78° C | 37% | 1012 hPa | 0 mm | 2.24 m/s, 150° | - | - |
| 1777998055 | 22.78° C | 38% | 1012 hPa | 0 mm | 1.79 m/s, 172° | - | - |
| 1777997750 | 22.22° C | 40% | 1012 hPa | 0 mm | 2.24 m/s, 268° | - | - |
| 1777997450 | 22.22° C | 39% | 1012 hPa | 0 mm | 2.24 m/s, 170° | - | - |
| 1777997149 | 22.22° C | 38% | 1012 hPa | 0 mm | 2.24 m/s, 258° | - | - |
| 1777996849 | 21.67° C | 43% | 1012 hPa | 0 mm | 2.24 m/s, 169° | - | - |
| 1777996548 | 21.67° C | 46% | 1012 hPa | 0 mm | 1.34 m/s, 178° | - | - |
| 1777996248 | 21.67° C | 45% | 1012 hPa | 0 mm | 0 m/s | - | - |
| 1777995938 | 21.11° C | 49% | 1013 hPa | 0 mm | 1.34 m/s, 189° | - | - |
| 1777995637 | 21.11° C | 49% | 1013 hPa | 0 mm | 1.34 m/s, 198° | - | - |
| 1777995304 | 20.56° C | 50% | 1013 hPa | 0 mm | 1.79 m/s, 170° | - | - |
| 1777995004 | 20.56° C | 52% | 1013 hPa | 0 mm | 1.79 m/s, 184° | - | - |
| 1777994703 | 20.56° C | 52% | 1013 hPa | 0 mm | 1.34 m/s, 178° | - | - |
| 1777994403 | 20.56° C | 55% | 1013 hPa | 0 mm | 1.79 m/s, 190° | - | - |
| 1777994103 | 20° C | 55% | 1013 hPa | 0 mm | 1.79 m/s, 181° | - | - |
| 1777993802 | 20° C | 57% | 1013 hPa | 0 mm | 1.34 m/s, 189° | - | - |
| 1777993497 | 19.44° C | 59% | 1013 hPa | 0 mm | 1.79 m/s, 168° | - | - |
| 1777993197 | 19.44° C | 61% | 1012 hPa | 0 mm | 0 m/s | - | - |
| 1777992897 | 19.44° C | 62% | 1012 hPa | 0 mm | 0 m/s | - | - |
| 1777992596 | 18.89° C | 63% | 1012 hPa | 0 mm | 0 m/s | - | - |
| 1777992296 | 18.89° C | 63% | 1013 hPa | 0 mm | 0 m/s | - | - |
| 1777991995 | 18.89° C | 63% | 1013 hPa | 0 mm | 1.34 m/s, 189° | - | - |
| 1777991681 | 18.33° C | 65% | 1013 hPa | 0 mm | 1.79 m/s, 202° | - | - |
| 1777991381 | 18.33° C | 66% | 1013 hPa | 0 mm | 1.34 m/s, 175° | - | - |
| 1777991261 | 17.78° C | 67% | 1013 hPa | 0 mm | 0 m/s | - | - |
* Rain latest hour (hover to see other rain measurements)
** Current wind speed in m/s (hover to see current wind gust speed)